GSAT 15

导读 | 豆包AI

GSAT-15是印度空间研究组织(ISRO)于2015年11月10日发射的通信卫星,由印度空间研究组织研制,属于印度GSAT系列通信卫星成员。该卫星携带通信有效载荷,旨在加强印度国内的通信基础设施覆盖,为用户提供通信广播服务,同时还承载了导航相关有效载荷,助力印度区域卫星导航系统(IRNSS),提升导航服务能力与冗余度,服务印度及周边区域的通信与定位需求。

基本信息
目录编号:
41028
目录名称:
GSAT 15
国际标识:
2015-065A
轨道中心:
EARTH
卫星名称:
GSAT 15
卫星全名:
--
卫星状态:
在轨 (已飞行3824 天)
发射日期:
2015-11-10 UTC
国别 :
印度 (IN)
星等 :
--
轨道信息
数据来源 国际轨道数据 AOE轨道数据
星历时间 2026-04-30T21:46:39+0800
6小时前
查看轨道信息
2026-04-30T23:00:00+0800
5小时前
查看轨道信息
半长轴 42164.924km 42164.981km
偏心率 0.0003927 0.00039
轨道倾角 0.059° 0.059°
近地点辐角 151.228° 150.571°
升交点赤经 256.092° 256.266°
平近点角 111.368° 130.239°
近地点 35770.228km 35770.399km
远地点 35803.346km 35803.289km
周期 1436.107分钟 1436.110分钟
每日圈数 1.002711 1.002709
详细信息
使用方式:
暂无
2D轨道图
3D轨道图
轨道高度分析图
轨道倾角分析图
轨道综合分析图
查看轨道综合分析图